RH
59 50 41 48 44 39 41 39 48 40 37 30 29 29 31 29 40 54 69 67 63 50 52 46 64 66 65 69 69 69 69 66 59 57 51 45 48 58 62 71 76 80 85 97
69 49 52 55 43 40 38 37 39 39 42 30 29 27 32 35 41 51 61 55 62 56 50 41 49 46 51 61 67 71 70 61 66 66 61 56 54 57 64 73 77 82 88 94
92 65 62 86 65 49 40 38 37 47 38 30 39 39 36 33 37 36 41 48 56 52 36 54 53 47 54 56 58 61 64 72 72 72 70 68 62 61 64 76 89 83 86 95
95 89 97 55 41 42 46 43 38 39 35 32 32 33 33 30 34 35 38 38 44 46 38 58 60 60 61 64 63 68 70 72 73 70 72 75 74 70 68 70 91 86 84 89
95 95 75 56 45 45 43 41 32 40 38 38 38 45 44 36 36 36 36 39 35 37 38 46 39 43 46 54 58 59 57 59 61 66 71 74 75 74 71 72 76 82 84 90
70 94 88 47 38 36 41 59 32 33 39 41 47 58 40 35 37 37 33 38 41 35 35 37 36 34 41 46 48 48 55 61 67 69 72 72 75 77 78 79 82 84 86 90
70 77 65 54 50 44 68 53 39 38 37 49 55 44 38 37 40 38 34 31 28 26 23 23 24 29 36 42 47 54 57 62 65 68 71 75 79 78 77 79 83 85 87 88
72 85 86 36 45 61 44 33 40 40 38 44 39 45 40 35 38 30 27 28 31 31 30 32 34 33 34 39 41 43 44 46 50 56 60 65 70 74 76 81 84 87 89 92
52 54 40 38 40 37 39 40 35 32 33 38 46 46 40 36 47 46 33 35 36 36 38 38 37 36 39 44 45 46 48 50 51 53 57 61 66 69 73 77 83 91 94 94
60 50 48 42 41 34 32 35 37 37 35 40 39 45 42 39 40 38 37 38 39 39 40 39 38 37 38 44 48 50 50 50 50 51 52 54 58 64 70 75 80 87 92 96
62 52 48 49 45 42 41 40 39 37 35 41 55 44 42 38 38 38 39 40 41 38 37 39 46 48 49 48 46 44 42 42 40 39 42 47 52 59 64 67 73 81 86 94
81 50 51 49 44 44 42 42 35 37 37 44 49 38 39 38 38 38 40 38 40 42 45 49 49 46 45 44 41 36 30 26 25 25 25 29 32 35 40 48 62 76 84 88
66 56 64 51 49 45 50 53 52 43 40 45 47 36 36 37 39 38 38 42 43 46 46 48 48 40 24 19 18 16 16 17 19 22 26 28 31 33 35 38 48 62 73 84
60 62 73 64 58 54 62 69 72 61 45 42 35 36 36 38 42 41 44 47 48 49 45 31 21 18 19 19 18 20 22 24 26 28 29 30 31 34 38 44 49 52 69 82
68 56 59 56 66 64 64 75 65 50 45 40 35 34 36 41 44 46 50 50 46 30 22 20 20 20 22 22 24 25 26 26 26 29 32 37 43 47 50 52 58 66 74 86
58 62 66 64 68 77 76 67 53 49 39 36 36 39 40 42 48 51 51 39 24 21 23 24 25 26 26 28 28 28 31 33 35 38 42 50 56 60 60 61 68 76 84 94
57 72 76 71 71 78 76 63 47 40 37 37 38 42 45 49 52 47 32 27 24 24 26 27 29 30 31 31 32 33 35 38 39 41 48 56 61 64 68 74 78 84 90 97
60 49 62 58 73 63 58 58 46 40 41 41 44 44 51 50 39 29 27 28 27 25 29 32 33 32 32 34 35 38 42 44 45 51 58 65 69 72 75 76 77 82 89 94
58 56 60 63 63 62 58 52 46 51 45 49 52 52 40 30 25 25 26 28 28 31 33 34 35 35 35 36 41 47 51 52 55 59 64 71 76 78 79 78 79 81 86 95
60 54 54 64 66 61 67 66 56 56 59 60 52 36 25 25 24 24 28 29 34 34 35 36 36 38 40 42 47 51 55 56 58 63 66 72 80 84 86 90 93 94 94 94
61 67 67 67 76 74 73 76 82 84 72 54 32 24 22 25 28 28 30 31 37 38 39 40 43 44 44 47 51 55 57 60 63 66 68 74 81 86 90 92 92 91 90 92
81 83 89 81 79 82 85 90 85 64 42 27 22 22 23 26 28 32 36 38 39 41 43 45 45 46 48 50 53 59 65 67 68 71 73 77 82 87 89 92 93 93 94 96
81 77 80 88 92 95 91 76 62 44 28 24 22 21 22 25 31 33 32 37 41 45 46 46 46 47 49 51 57 65 72 74 76 77 78 82 85 88 90 92 89 78 56 40
78 93 96 93 70 64 56 47 32 28 23 20 21 22 22 29 33 35 42 46 46 44 44 46 48 51 53 58 63 67 76 81 83 83 85 87 81 69 41 27 26 25 25 28
75 72 62 54 48 39 31 30 24 24 24 24 29 37 35 37 36 39 43 46 48 45 45 48 52 56 60 63 68 75 84 85 88 90 90 69 40 26 24 23 22 24 27 31
51 48 41 32 26 27 24 23 22 24 28 37 37 35 38 39 39 40 41 41 44 52 59 61 60 61 64 69 72 76 88 90 94 94 82 48 29 26 25 25 26 28 32 36
41 36 30 27 25 24 23 23 24 32 30 27 29 36 35 37 42 42 45 49 55 58 60 65 67 68 70 72 73 81 96 97 98 95 71 41 29 28 29 30 32 35 39 41
Wind_Speed
23 27 24 17 21 21 21 23 19 26 24 20 17 17 24 32 22 19 21 24 30 28 24 26 33 35 37 38 39 40 41 40 39 39 41 44 42 35 39 36 35 36 38 35
26 29 25 25 30 31 29 28 21 23 27 18 25 22 19 27 22 20 26 29 28 32 26 33 34 31 34 38 38 39 41 40 43 42 45 44 42 43 41 35 36 41 40 37
20 23 18 18 27 26 27 22 22 22 28 17 15 15 24 28 27 30 33 27 27 28 15 29 33 33 32 30 32 34 34 37 37 41 43 43 45 42 39 39 37 39 41 39
13 15 21 21 15 19 18 21 22 23 22 19 21 28 28 29 28 26 24 21 20 22 22 21 20 21 20 22 24 27 29 29 30 32 35 38 40 40 41 44 36 36 40 41
11 18 21 21 19 15 17 27 23 21 21 25 25 12 15 21 21 18 17 19 17 15 15 14 13 14 15 17 18 19 20 21 22 24 26 29 30 34 37 42 41 38 40 42
16 19 29 24 25 30 17 23 22 21 26 21 17 12 10 25 22 21 17 15 21 22 19 14 15 12 10 9 8 9 9 10 11 12 14 16 19 24 27 31 33 35 38 39
21 22 21 16 19 6 15 16 10 16 26 15 11 22 22 19 19 21 24 23 18 19 18 15 11 9 8 7 7 5 5 6 6 7 8 10 13 16 19 24 28 32 35 36
17 22 31 23 29 33 19 28 16 13 16 22 33 27 23 26 28 26 26 26 21 20 17 16 15 15 15 11 8 6 4 3 3 4 6 8 11 14 17 21 26 30 32 35
19 17 13 20 40 50 44 38 27 29 27 28 23 25 33 38 26 24 29 25 21 18 17 16 13 11 8 7 5 4 4 3 2 4 6 9 12 15 18 22 26 30 33 35
27 31 32 45 41 44 50 48 45 35 29 19 19 29 35 37 37 36 30 25 22 19 17 14 10 9 8 6 5 4 3 1 1 4 6 9 12 15 18 21 25 30 34 35
29 29 30 35 50 39 36 38 36 33 23 19 21 37 36 42 37 33 28 24 22 19 16 14 13 11 8 6 3 0 3 6 8 10 12 13 15 16 17 18 19 24 28 32
21 21 26 38 34 39 39 34 37 26 24 23 37 43 46 41 36 32 30 26 23 20 18 17 12 8 5 2 1 3 5 7 9 11 13 16 18 20 21 21 20 19 22 25
30 49 41 39 29 33 20 15 10 26 32 34 35 46 44 39 35 32 28 25 23 20 16 13 9 5 3 2 0 3 6 9 11 12 14 16 18 21 23 23 22 21 19 20
47 46 29 26 22 24 21 18 41 29 31 43 47 43 40 37 34 30 28 25 22 19 14 10 7 5 3 2 4 6 8 10 12 13 16 18 20 22 23 23 23 23 20 19
40 44 44 32 22 20 16 23 32 31 40 43 42 41 38 37 33 30 27 23 18 14 13 10 7 3 3 4 6 7 9 11 14 16 18 19 20 21 21 21 21 21 20 17
38 36 34 28 21 23 20 25 33 38 46 44 41 38 36 34 32 28 24 18 16 14 12 9 6 4 4 5 7 9 11 12 14 16 17 18 18 18 19 19 19 18 17 15
37 28 27 23 22 29 35 32 44 47 45 43 41 38 35 32 29 25 22 19 15 13 9 7 5 4 4 7 8 10 12 14 16 17 17 18 18 17 16 15 13 11 10 8
36 35 39 38 39 34 31 32 46 44 40 41 41 37 34 31 27 24 21 17 13 10 7 5 3 4 6 8 9 11 12 14 16 16 16 16 15 14 12 9 7 6 4 2
33 30 27 30 31 31 38 40 33 34 33 34 33 31 27 24 24 22 18 14 11 8 6 4 3 5 6 8 9 11 14 15 15 16 15 15 13 10 8 6 5 3 2 1
32 34 35 36 38 40 33 32 37 38 34 28 28 28 28 25 22 19 16 13 9 6 4 4 3 5 7 8 10 12 14 15 15 14 13 12 10 8 7 5 3 3 4 5
35 36 42 42 44 43 40 31 24 24 28 28 29 28 26 24 21 17 14 10 8 5 4 2 3 6 8 9 11 12 13 13 13 13 11 10 8 6 5 3 3 3 3 2
39 44 43 41 38 36 33 29 29 32 31 29 27 25 24 22 18 15 12 9 8 6 3 1 3 5 7 9 11 11 11 12 12 10 9 8 6 5 4 4 3 3 3 2
37 36 33 33 32 30 34 34 34 34 34 29 26 22 18 16 14 13 11 10 8 5 3 3 3 5 6 8 8 9 9 10 9 8 7 6 4 4 3 3 3 3 3 2
39 34 30 27 36 41 41 38 36 32 28 24 21 18 17 16 15 13 10 8 5 3 2 3 4 5 6 6 6 8 8 7 7 6 5 3 2 2 2 3 3 3 3 2
34 32 35 45 47 44 42 39 35 31 28 24 21 19 17 13 9 10 8 6 3 2 3 4 5 5 6 7 6 5 5 6 6 4 3 2 2 2 3 3 3 3 3 3
41 46 47 45 45 43 38 34 31 28 25 24 20 16 14 12 10 7 6 3 1 2 3 4 6 7 7 6 5 5 5 5 4 3 2 2 2 3 3 3 3 3 3 3
45 43 41 39 36 33 31 28 27 25 20 16 16 15 11 9 7 5 3 2 3 3 4 5 6 6 5 5 5 4 4 5 3 2 2 2 2 3 3 4 4 4 4 4
Wind_Direction
276 279 265 263 272 265 249 251 248 273 271 275 257 256 257 259 255 234 217 207 213 210 216 241 225 222 223 225 227 228 232 236 239 242 244 245 246 247 250 247 250 250 246 246
270 268 271 283 265 259 250 249 253 270 267 259 260 263 257 254 251 232 225 216 217 205 198 236 223 220 224 225 230 232 235 240 243 241 245 248 248 244 248 251 257 247 246 249
270 268 271 272 245 256 258 246 242 247 254 266 251 238 241 248 241 239 228 222 218 214 228 238 227 226 232 234 237 242 244 244 248 251 251 251 251 249 244 246 254 247 247 251
271 290 251 252 241 260 252 243 235 251 266 262 255 250 250 253 248 238 223 212 215 212 232 234 241 237 235 236 238 243 249 252 254 258 258 255 253 249 245 245 257 253 249 252
255 254 276 275 237 239 237 256 247 248 259 253 253 243 247 236 225 217 229 204 194 188 238 224 219 213 217 223 231 238 244 249 254 257 259 258 257 252 249 248 253 253 248 249
237 245 249 257 253 239 268 266 262 247 252 243 221 238 233 219 207 200 196 205 181 181 178 178 185 187 193 207 226 245 252 256 254 252 250 252 253 251 253 255 255 253 252 253
235 243 253 249 287 198 203 252 206 246 248 213 208 235 240 201 179 177 162 163 162 156 166 163 157 154 151 141 146 178 204 213 222 232 243 253 256 255 255 258 257 256 255 255
232 238 248 225 228 236 263 271 258 268 242 211 233 231 213 181 170 161 157 159 158 154 146 140 134 131 130 132 130 128 143 174 210 238 254 260 261 264 264 263 261 260 257 257
226 233 242 221 225 234 237 245 248 254 258 235 244 214 194 167 159 191 169 160 156 154 147 142 140 139 152 156 166 180 200 232 266 276 279 279 278 277 275 271 268 264 260 258
253 253 253 257 255 245 240 239 239 235 253 254 258 213 179 178 171 168 165 162 159 159 157 151 154 173 187 186 179 162 151 175 292 299 298 293 286 283 280 277 273 269 266 264
251 251 260 257 238 238 223 227 229 235 243 240 238 197 183 171 164 164 164 164 160 157 150 144 147 145 136 132 127 347 318 314 310 304 302 301 301 300 294 291 285 281 276 273
261 258 251 249 250 237 229 230 235 236 247 224 208 192 173 166 164 164 159 155 151 148 147 143 145 145 149 157 299 315 312 302 303 303 300 297 296 295 294 295 294 287 283 278
250 250 256 255 237 243 217 200 232 219 240 196 176 166 167 163 162 159 156 156 155 151 150 151 157 170 165 148 61 344 328 320 314 306 302 298 295 294 293 291 292 293 291 287
248 243 246 236 221 198 200 239 211 235 204 183 167 165 162 158 155 156 157 157 156 155 153 153 148 148 129 44 3 343 332 325 316 315 312 306 302 296 292 291 292 290 287 285
258 243 240 238 201 192 194 231 211 199 180 169 166 163 161 156 156 156 156 154 154 154 148 142 137 120 56 18 357 342 332 328 325 319 314 309 305 301 299 298 293 288 286 279
246 229 222 221 205 200 213 200 194 174 171 166 164 160 159 159 157 153 151 154 159 151 141 132 111 80 39 5 350 343 338 335 331 330 326 322 318 314 310 304 298 292 286 283
232 212 208 204 208 199 204 197 190 171 168 165 162 158 156 157 153 153 153 152 153 143 128 110 97 61 18 1 352 346 342 341 342 341 337 335 332 329 324 317 308 299 291 281
209 216 213 214 204 185 174 180 173 174 165 159 156 155 163 160 155 152 151 149 143 129 120 114 84 35 13 356 344 345 347 349 350 348 346 344 342 339 331 327 326 317 304 240
211 204 191 186 175 161 166 166 161 172 163 154 149 153 152 153 150 146 144 144 132 129 128 110 50 21 355 350 348 350 355 355 354 351 349 348 347 344 339 348 352 360 29 45
158 161 158 154 157 159 144 149 146 138 140 145 158 158 152 145 144 146 143 139 136 132 116 77 34 355 348 353 354 353 355 354 354 353 351 348 349 345 348 357 12 58 84 94
140 144 140 137 134 135 138 139 152 156 155 169 164 153 146 143 146 144 143 139 133 123 119 113 13 3 358 356 357 355 351 351 353 353 354 354 352 356 14 48 67 61 51 65
138 138 139 138 142 148 155 165 158 158 157 157 152 150 149 146 144 141 134 130 137 145 148 71 24 10 8 3 356 348 346 350 352 356 1 2 16 33 52 63 63 60 67 98
135 131 147 153 154 151 144 148 160 164 158 152 149 145 145 142 140 135 143 151 152 141 116 52 17 9 359 347 339 338 346 350 352 355 5 19 41 47 47 49 58 61 60 48
156 158 157 155 146 144 150 154 155 151 144 141 142 147 153 147 145 152 153 146 136 113 57 11 350 331 319 318 328 339 335 340 350 355 360 7 13 22 32 34 30 24 10 351
162 157 151 148 145 146 148 149 147 147 145 146 149 147 147 152 150 143 131 119 92 25 336 309 296 296 301 303 314 315 326 338 337 337 330 320 352 3 8 13 15 7 349 335
140 141 144 147 148 147 144 146 144 146 150 147 149 153 154 146 141 132 118 111 109 293 311 323 314 298 294 291 298 306 313 316 313 312 295 287 324 343 350 354 353 343 330 320
142 143 142 140 140 142 144 149 149 146 148 152 156 154 154 154 150 147 166 213 247 291 306 299 292 294 291 295 288 286 293 297 287 287 256 280 318 331 334 339 336 333 330 324